STARLINK-1564, 46058

Orbit data source: Space-Track

STARLINK-1564, 46058 is a payload satellite owned by SpaceX/Seattle (US) in LEO that was launched on Fri, 07 Aug 2020 UTC via an FALCON 9 launch vehicle from the Air Force Eastern Test Range (AFETR). Payload-class satellites include a variety of spacecraft equipped with specific instruments for various scientific and technological missions. These include communications satellites like Starlink; space stations such as the ISS; scientific satellites like the Hubble; Earth observation satellites from companies like Planet Labs, Umbra, and HawkEye 360; GPS; miniature CubeSats for education and research; and military/defense satellites.

Loading next visibility...
Identifier
46058, 2020-055AH
Orbit
LEO
Country
Flag of USUS
Related business
Manufacturer
SpaceX/Seattle
Mission
Operational Commercial Communications
Bus & Motor
STARLINK, Unknown motor
Mass
260 kg wet, ~248 kg dry
Launch date (UTC)
2020-08-07 (5 years ago)
Launch vehicle
FALCON 9
Launch site
Air Force Eastern Test Range (AFETR)
Object type
Payload
Rocket body
Debris
Shape & HBR
Box + 1 Pan, 4.4 m
Radar Cross Section
13.562 m², Large (>1 m²)

Expand to show TLE details & history
Last TLE update: 10 hours ago

TLE from 10 hours ago
0 STARLINK-1564
1 46058U 20055AH  25260.92568365 -.00003457  00000-0 -21334-3 0  9991
2 46058  53.0543 172.6484 0001472  90.2750 269.8408 15.06390268282980
Epoch: 2025-09-17T22:12Z
TLE epoch observation values (Epoch: 2025-09-17T22:12:59.067Z)
Latitude
0.00001°
Longitude
-157.69234°
Altitude
548.124 km
Speed
7.589 km/s
True Right ascension
11h 30m 35s
True Declination
0° 00' 00"
Sunlit
Object was in daylight at epoch
Visualization orbit readout
Latitude
Unknown
Longitude
Unknown
Altitude
Unknown
Speed
Unknown
Apparent Right ascension
Unknown
Apparent Declination
Unknown
Sunlit
N/A
Visualization observer readout
Local Sidereal Time
00:48:44
Azimuth
Unknown
Elevation
Unknown
Doppler factor
Unknown
Orbital elements
Apogee altitude
548.532 km
Perigee altitude
546.493 km
Semi-major axis
6,925.649 km
Eccentricity
0.00015
Inclination
53.0543°
RAAN
172.6484°
Arg. of periapsis
90.275°
True anomaly
269.82393°
Mean anomaly
269.8408°
Eccentric anomaly
269.83237°
Mean motion
3.76576 °/min
Orbital period
95.6 mins
BSTAR
-0.00021334
Loading maneuver chart data...
Computing Atmospheric mass density...
Loading historical data...
Loading historical data...
Loading historical data...
Loading historical data...
Loading historical data...
Loading historical data...
Loading historical data...

Documentation

Showing up to 5 results
|